Location: Baptist Memorial Hospital
(34.4976°N, 89.0284°W)
Time: 08:02:09
(UTC+00:00)

Cosmos 1400 Rocket - Pass Details

Date: 29 October 2020
Orbit: 521 x 568 km, 81.2° (Epoch: 03 December)

Event Time Altitude Azimuth Distance (km) Brightness Sun altitude
Rises 23:25:32 0° 181° (S) 2,751 6.6 -4.9°
Reaches altitude 10° 23:27:43 10° 179° (S) 1,856 5.7 -5.4°
Maximum altitude 23:31:48 69° 96° (E) 606 2.8 -6.2°
Drops below altitude 10° 23:35:52 10° 14° (NNE) 1,853 5.3 -7.0°
Sets 23:38:02 0° 12° (NNE) 2,746 6.1 -7.4°
